FLOCK 3P-58 (41977 NORAD) Tracking and Keplerian Element Data

This shows tracking and keplerian element data for the satellite.

Feedback or suggestion? Click here.




ElementValue
Catalog41977
NameFLOCK 3P-58
Epoch Orbit5541
Epoch Day45.44702736
Epoch Year2018
RAAN110.9561
Inclination97.4661
Eccentricity0.0009561
Argument of Perigee70.692
Mean Anonmoly289.535
Mean Motion15.23921853
Decay Rate2.982E-05
L11 41977U 17008AF 18045.44702736 .00002982 00000-0 12626-3 0 9996
L22 41977 97.4661 110.9561 0009561 70.6920 289.5350 15.23921853 55417

Live tracking and technical data element details for FLOCK 3P-58 (NORAD 41977). FLOCK 3P-58 can be tracked NOW for your location showing map with azimuth and elevation plus other details from your city location.

Track the satellite on the map from your city or location and see movement details for azimuth, elevation, latitude, longitude, range, height, and movement on the map or in text.







IsCatalogInMostPopularTable: catalog: 41977, numindb: 115
Update: records affected: 1



GetName: 41977 FLOCK 3P-58

Hit Count: updated at: Wed, 14 Nov 2018 10:49:23 GMT